Location: Boiro
(42.6475°N, 8.8834°W)
Time: 14:53:21
(UTC+02:00)

Explorer 7 - Pass Details

Date: 29 June 2022
Orbit: 482 x 668 km, 50.3° (Epoch: 15 August)

Event Time Altitude Azimuth Distance (km) Brightness Sun altitude
Exits shadow 23:45:04 11° 98° (E) 2,040 9.3 -12.9°
Drops below altitude 10° 23:45:12 10° 96° (E) 2,069 9.3 -12.9°
Sets 23:48:32 0° 73° (ENE) 2,984 10.3 -13.3°
